When you browse on this site, cookies collect data to enhance your experience and personalize the content and advertising you see.
Visit our Privacy Policy to learn more. By continuing to use the site, you agree to this use of cookies and data.
  • In Portugal
  • List of Countries
  • For 7 days
  • Water Temperature
  • Satellite Maps
  • Weather Map
  • Weather Widgets
  • user-avatar
    Login

    Hourly Weather Herāt

    Today, 11 December, Tuesday

    Time Temperature Precipitation Wind Pressure Humidity
    00:00 +7°C° 0 mm 1 mps 679 mmHg 74%
    01:00 +7°C° 0 mm 1 mps 679 mmHg 75%
    02:00 +7°C° 0 mm 1 mps 679 mmHg 74%
    03:00 +7°C° 0 mm 1 mps 679 mmHg 74%
    04:00 +6°C° 0 mm 1 mps 678 mmHg 75%
    05:00 +6°C° 0 mm 1 mps 679 mmHg 74%
    06:00 +6°C° 0 mm 1 mps 679 mmHg 72%
    07:00 +6°C° 0 mm 1 mps 679 mmHg 71%
    08:00 +7°C° 0 mm 1 mps 679 mmHg 62%
    09:00 +9°C° 0 mm 1 mps 680 mmHg 53%
    10:00 +10°C° 0 mm 1 mps 680 mmHg 43%
    11:00 +11°C° 0 mm 1 mps 680 mmHg 40%
    12:00 +12°C° 0 mm 1 mps 680 mmHg 37%
    13:00 +12°C° 0 mm 2 mps 680 mmHg 34%
    14:00 +12°C° 0 mm 2 mps 680 mmHg 35%
    15:00 +12°C° 0 mm 2 mps 680 mmHg 36%
    16:00 +12°C° 0 mm 2 mps 680 mmHg 37%
    17:00 +11°C° 0 mm 1 mps 680 mmHg 40%
    18:00 +10°C° 0 mm 1 mps 680 mmHg 44%
    19:00 +9°C° 0 mm 1 mps 680 mmHg 48%
    20:00 +9°C° 0 mm 1 mps 680 mmHg 48%
    21:00 +9°C° 0 mm 1 mps 680 mmHg 47%
    22:00 +8°C° 0 mm 1 mps 680 mmHg 47%
    23:00 +8°C° 0 mm 1 mps 680 mmHg 46%

    Tomorrow, 12 December, Wednesday

    Time Temperature Precipitation Wind Pressure Humidity
    00:00 +8°C° 0 mm 1 mps 680 mmHg 44%
    01:00 +7°C° 0 mm 1 mps 680 mmHg 43%
    02:00 +7°C° 0 mm 1 mps 680 mmHg 42%
    03:00 +7°C° 0 mm 1 mps 680 mmHg 42%
    04:00 +6°C° 0 mm 2 mps 680 mmHg 41%
    05:00 +6°C° 0 mm 2 mps 680 mmHg 42%
    06:00 +6°C° 0 mm 2 mps 680 mmHg 42%
    07:00 +6°C° 0 mm 2 mps 680 mmHg 43%
    08:00 +7°C° 0 mm 2 mps 681 mmHg 41%
    09:00 +9°C° 0 mm 3 mps 681 mmHg 39%
    10:00 +11°C° 0 mm 3 mps 682 mmHg 36%
    11:00 +11°C° 0 mm 3 mps 681 mmHg 36%
    12:00 +12°C° 0 mm 3 mps 681 mmHg 36%
    13:00 +13°C° 0 mm 3 mps 681 mmHg 36%
    14:00 +13°C° 0 mm 3 mps 681 mmHg 37%
    15:00 +13°C° 0 mm 3 mps 680 mmHg 38%
    16:00 +13°C° 0 mm 3 mps 680 mmHg 38%
    17:00 +12°C° 0 mm 3 mps 681 mmHg 41%
    18:00 +11°C° 0 mm 3 mps 681 mmHg 44%
    19:00 +10°C° 0 mm 2 mps 681 mmHg 46%
    20:00 +10°C° 0 mm 3 mps 681 mmHg 47%
    21:00 +9°C° 0 mm 3 mps 681 mmHg 47%
    22:00 +9°C° 0 mm 3 mps 681 mmHg 48%
    23:00 +9°C° 0 mm 3 mps 681 mmHg 47%

    Day after tomorrow, 13 December, Thursday

    Time Temperature Precipitation Wind Pressure Humidity
    00:00 +9°C° 0 mm 3 mps 681 mmHg 47%
    01:00 +8°C° 0 mm 3 mps 681 mmHg 46%
    02:00 +8°C° 0 mm 3 mps 681 mmHg 45%
    03:00 +8°C° 0 mm 3 mps 680 mmHg 45%
    04:00 +8°C° 0 mm 3 mps 680 mmHg 44%
    05:00 +8°C° 0 mm 3 mps 681 mmHg 43%
    06:00 +8°C° 0 mm 3 mps 681 mmHg 42%
    07:00 +7°C° 0 mm 4 mps 681 mmHg 41%
    08:00 +10°C° 0 mm 4 mps 681 mmHg 36%
    09:00 +11°C° 0 mm 4 mps 682 mmHg 32%
    10:00 +13°C° 0 mm 4 mps 683 mmHg 27%
    11:00 +14°C° 0 mm 5 mps 682 mmHg 26%
    12:00 +15°C° 0 mm 5 mps 682 mmHg 24%
    13:00 +16°C° 0 mm 6 mps 681 mmHg 23%
    14:00 +15°C° 0 mm 5 mps 681 mmHg 24%
    15:00 +15°C° 0 mm 5 mps 681 mmHg 25%
    16:00 +15°C° 0 mm 4 mps 681 mmHg 27%
    17:00 +13°C° 0 mm 4 mps 681 mmHg 29%
    18:00 +12°C° 0 mm 4 mps 681 mmHg 31%
    19:00 +11°C° 0 mm 3 mps 681 mmHg 33%
    20:00 +11°C° 0 mm 3 mps 681 mmHg 32%
    21:00 +11°C° 0 mm 3 mps 681 mmHg 32%
    22:00 +10°C° 0 mm 3 mps 681 mmHg 32%
    23:00 +10°C° 0 mm 3 mps 681 mmHg 32%

    14 December, Friday

    Time Temperature Precipitation Wind Pressure Humidity
    00:00 +10°C° 0 mm 3 mps 681 mmHg 31%
    01:00 +9°C° 0 mm 3 mps 681 mmHg 30%
    02:00 +9°C° 0 mm 3 mps 681 mmHg 30%
    03:00 +9°C° 0 mm 3 mps 681 mmHg 29%
    04:00 +9°C° 0 mm 3 mps 681 mmHg 28%
    05:00 +8°C° 0 mm 2 mps 681 mmHg 28%
    06:00 +8°C° 0 mm 2 mps 681 mmHg 27%
    07:00 +8°C° 0 mm 2 mps 682 mmHg 26%
    08:00 +10°C° 0 mm 2 mps 683 mmHg 24%
    09:00 +13°C° 0 mm 2 mps 683 mmHg 21%
    10:00 +15°C° 0 mm 2 mps 684 mmHg 18%
    11:00 +15°C° 0 mm 2 mps 684 mmHg 18%
    12:00 +16°C° 0 mm 2 mps 684 mmHg 19%
    13:00 +17°C° 0 mm 2 mps 684 mmHg 19%
    14:00 +16°C° 0 mm 2 mps 684 mmHg 21%
    15:00 +16°C° 0 mm 1 mps 684 mmHg 23%
    16:00 +15°C° 0 mm 1 mps 684 mmHg 25%
    17:00 +14°C° 0 mm 2 mps 684 mmHg 28%
    18:00 +13°C° 0 mm 2 mps 684 mmHg 30%
    19:00 +12°C° 0 mm 2 mps 684 mmHg 33%
    20:00 +10°C° 0 mm 2 mps 684 mmHg 35%
    21:00 +10°C° 0 mm 2 mps 684 mmHg 36%
    22:00 +9°C° 0 mm 2 mps 684 mmHg 38%
    23:00 +9°C° 0 mm 2 mps 683 mmHg 39%

    15 December, Saturday

    Time Temperature Precipitation Wind Pressure Humidity
    00:00 +9°C° 0 mm 2 mps 683 mmHg 39%
    01:00 +8°C° 0 mm 2 mps 683 mmHg 40%
    02:00 +9°C° 0 mm 1 mps 682 mmHg 39%
    03:00 +8°C° 0 mm 1 mps 682 mmHg 39%
    04:00 +8°C° 0 mm 1 mps 682 mmHg 38%
    05:00 +8°C° 0 mm 1 mps 682 mmHg 37%
    06:00 +8°C° 0 mm 1 mps 682 mmHg 36%
    07:00 +7°C° 0 mm 1 mps 682 mmHg 35%
    08:00 +10°C° 0 mm 1 mps 682 mmHg 30%
    09:00 +12°C° 0 mm 1 mps 683 mmHg 25%
    10:00 +14°C° 0 mm 2 mps 684 mmHg 20%
    11:00 +14°C° 0 mm 3 mps 683 mmHg 20%
    12:00 +16°C° 0 mm 3 mps 683 mmHg 19%
    13:00 +17°C° 0 mm 4 mps 683 mmHg 19%
    14:00 +17°C° 0 mm 3 mps 683 mmHg 21%
    15:00 +16°C° 0 mm 3 mps 682 mmHg 23%
    16:00 +16°C° 0 mm 2 mps 682 mmHg 25%
    17:00 +14°C° 0 mm 2 mps 683 mmHg 28%
    18:00 +13°C° 0 mm 2 mps 683 mmHg 31%
    19:00 +12°C° 0 mm 1 mps 683 mmHg 34%
    20:00 +11°C° 0 mm 1 mps 683 mmHg 34%
    21:00 +11°C° 0 mm 1 mps 683 mmHg 35%
    22:00 +10°C° 0 mm 1 mps 683 mmHg 36%
    23:00 +10°C° 0 mm 1 mps 683 mmHg 37%

    16 December, Sunday

    Time Temperature Precipitation Wind Pressure Humidity
    00:00 +9°C° 0 mm 1 mps 683 mmHg 38%
    01:00 +9°C° 0 mm 1 mps 683 mmHg 39%
    02:00 +9°C° 0 mm 1 mps 683 mmHg 40%
    03:00 +8°C° 0 mm 1 mps 684 mmHg 42%
    04:00 +7°C° 0 mm 2 mps 684 mmHg 43%
    05:00 +7°C° 0 mm 2 mps 684 mmHg 45%
    06:00 +7°C° 0 mm 2 mps 685 mmHg 47%
    07:00 +6°C° 0 mm 2 mps 685 mmHg 49%
    08:00 +8°C° 0 mm 2 mps 686 mmHg 45%
    09:00 +9°C° 0 mm 2 mps 686 mmHg 42%
    10:00 +12°C° 0 mm 2 mps 687 mmHg 38%
    11:00 +13°C° 0 mm 2 mps 687 mmHg 37%
    12:00 +13°C° 0 mm 2 mps 686 mmHg 35%
    13:00 +14°C° 0 mm 2 mps 686 mmHg 34%
    14:00 +13°C° 0 mm 2 mps 686 mmHg 36%
    15:00 +13°C° 0 mm 2 mps 686 mmHg 39%
    16:00 +12°C° 0 mm 3 mps 685 mmHg 42%
    17:00 +12°C° 0 mm 2 mps 686 mmHg 48%
    18:00 +10°C° 0 mm 2 mps 686 mmHg 55%
    19:00 +9°C° 0 mm 2 mps 686 mmHg 61%
    20:00 +8°C° 0 mm 2 mps 686 mmHg 63%
    21:00 +8°C° 0 mm 2 mps 686 mmHg 65%
    22:00 +7°C° 0 mm 2 mps 686 mmHg 67%
    23:00 +7°C° 0 mm 2 mps 685 mmHg 67%
    Show more